Time,TemperatureF,DewpointF,PressureIn,WindDirection,WindDirectionDegrees,WindSpeedMPH,WindSpeedGustMPH,Humidity,HourlyPrecipIn,Conditions,Clouds,dailyrainin,SoftwareType,DateUTC
2013-04-01 14:33:00,42.0,18.0,30.31,NNE,22,8.0,14.0,37,0.00,,,0.00,,2013-04-01 19:33:00,
2013-04-01 14:43:00,42.0,18.0,30.31,NNE,22,8.0,14.0,37,0.00,,,0.00,,2013-04-01 19:43:00,
2013-04-01 14:53:00,42.0,18.0,30.31,NE,34,10.0,16.0,37,0.00,,,0.00,,2013-04-01 19:53:00,
2013-04-01 15:02:00,42.0,18.0,30.30,NNW,336,6.0,14.0,37,0.00,,,0.00,,2013-04-01 20:02:00,
2013-04-01 15:12:00,42.0,18.0,30.30,NNW,336,6.0,14.0,37,0.00,,,0.00,,2013-04-01 20:12:00,
2013-04-01 15:22:00,43.0,19.0,30.29,NE,54,7.0,13.0,37,0.00,,,0.00,,2013-04-01 20:22:00,
2013-04-01 15:32:00,42.0,18.0,30.28,North,355,7.0,15.0,38,0.00,,,0.00,,2013-04-01 20:32:00,
2013-04-01 15:42:00,42.0,18.0,30.28,North,355,7.0,15.0,38,0.00,,,0.00,,2013-04-01 20:42:00,
2013-04-01 15:52:00,43.0,18.0,30.28,NE,53,10.0,15.0,36,0.00,,,0.00,,2013-04-01 20:52:00,
2013-04-01 16:02:00,43.0,18.0,30.27,NE,46,7.0,18.0,36,0.00,,,0.00,,2013-04-01 21:02:00,
2013-04-01 16:12:00,43.0,18.0,30.27,NE,46,7.0,18.0,36,0.00,,,0.00,,2013-04-01 21:12:00,
2013-04-01 16:22:00,44.0,19.0,30.27,NNE,30,6.0,12.0,36,0.00,,,0.00,,2013-04-01 21:22:00,
2013-04-01 16:32:00,44.0,19.0,30.26,NE,40,7.0,15.0,36,0.00,,,0.00,,2013-04-01 21:32:00,
2013-04-01 16:43:00,44.0,19.0,30.26,NE,40,7.0,15.0,36,0.00,,,0.00,,2013-04-01 21:43:00,
2013-04-01 16:52:00,44.0,19.0,30.26,NE,38,6.0,15.0,37,0.00,,,0.00,,2013-04-01 21:52:00,
2013-04-01 17:02:00,43.0,18.0,30.26,NE,39,7.0,13.0,36,0.00,,,0.00,,2013-04-01 22:02:00,
2013-04-01 17:12:00,43.0,18.0,30.26,NE,39,7.0,13.0,36,0.00,,,0.00,,2013-04-01 22:12:00,
2013-04-01 17:22:00,44.0,19.0,30.25,NNW,348,7.0,14.0,37,0.00,,,0.00,,2013-04-01 22:22:00,
2013-04-01 17:33:00,44.0,19.0,30.25,NE,52,6.0,14.0,37,0.00,,,0.00,,2013-04-01 22:33:00,
2013-04-01 17:43:00,44.0,19.0,30.25,NE,52,6.0,14.0,37,0.00,,,0.00,,2013-04-01 22:43:00,
2013-04-01 17:52:00,44.0,20.0,30.25,NE,55,7.0,11.0,38,0.00,,,0.00,,2013-04-01 22:52:00,
2013-04-01 18:02:00,44.0,19.0,30.24,NE,52,8.0,12.0,37,0.00,,,0.00,,2013-04-01 23:02:00,
2013-04-01 18:12:00,44.0,19.0,30.24,NE,52,8.0,12.0,37,0.00,,,0.00,,2013-04-01 23:12:00,
2013-04-01 18:23:00,44.0,20.0,30.24,ENE,63,7.0,12.0,38,0.00,,,0.00,,2013-04-01 23:23:00,
2013-04-01 18:32:00,43.0,19.0,30.24,NNE,13,9.0,13.0,37,0.00,,,0.00,,2013-04-01 23:32:00,
2013-04-01 18:42:00,43.0,19.0,30.24,NNE,13,9.0,13.0,37,0.00,,,0.00,,2013-04-01 23:42:00,
2013-04-01 18:53:00,43.0,19.0,30.24,NNE,22,8.0,13.0,38,0.00,,,0.00,,2013-04-01 23:53:00,
2013-04-01 19:02:00,42.0,18.0,30.24,NNE,30,7.0,12.0,37,0.00,,,0.00,,2013-04-02 00:02:00,
2013-04-01 19:12:00,42.0,18.0,30.24,NNE,30,7.0,12.0,37,0.00,,,0.00,,2013-04-02 00:12:00,
2013-04-01 19:22:00,42.0,18.0,30.24,ENE,66,7.0,11.0,38,0.00,,,0.00,,2013-04-02 00:22:00,
2013-04-01 19:33:00,41.0,19.0,30.25,NNE,30,5.0,11.0,40,0.00,,,0.00,,2013-04-02 00:33:00,
2013-04-01 19:42:00,41.0,19.0,30.25,NNE,30,5.0,11.0,40,0.00,,,0.00,,2013-04-02 00:42:00,
2013-04-01 19:53:00,40.0,18.0,30.25,NE,47,5.0,8.0,41,0.00,,,0.00,,2013-04-02 00:53:00,
2013-04-01 20:02:00,39.0,18.0,30.26,NE,48,3.0,6.0,43,0.00,,,0.00,,2013-04-02 01:02:00,
2013-04-01 20:12:00,39.0,18.0,30.26,NE,48,3.0,6.0,43,0.00,,,0.00,,2013-04-02 01:12:00,
2013-04-01 20:22:00,38.0,18.0,30.26,ENE,57,1.0,5.0,44,0.00,,,0.00,,2013-04-02 01:22:00,
2013-04-01 20:32:00,37.0,18.0,30.26,ENE,61,1.0,4.0,46,0.00,,,0.00,,2013-04-02 01:32:00,
2013-04-01 20:42:00,37.0,18.0,30.26,ENE,61,1.0,4.0,46,0.00,,,0.00,,2013-04-02 01:42:00,
2013-04-01 20:53:00,35.0,17.0,30.27,NE,49,1.0,3.0,48,0.00,,,0.00,,2013-04-02 01:53:00,
2013-04-01 21:02:00,35.0,18.0,30.27,ENE,57,1.0,4.0,49,0.00,,,0.00,,2013-04-02 02:02:00,
2013-04-01 21:12:00,35.0,18.0,30.27,ENE,57,1.0,4.0,49,0.00,,,0.00,,2013-04-02 02:12:00,
2013-04-01 21:22:00,34.0,17.0,30.28,ENE,57,3.0,5.0,50,0.00,,,0.00,,2013-04-02 02:22:00,
2013-04-01 21:32:00,34.0,17.0,30.29,NE,40,1.0,5.0,50,0.00,,,0.00,,2013-04-02 02:32:00,
2013-04-01 21:42:00,34.0,17.0,30.29,NE,40,1.0,5.0,50,0.00,,,0.00,,2013-04-02 02:42:00,
2013-04-01 21:53:00,34.0,18.0,30.29,NE,38,1.0,5.0,51,0.00,,,0.00,,2013-04-02 02:53:00,
2013-04-01 22:02:00,33.0,17.0,30.30,NE,53,0.0,4.0,52,0.00,,,0.00,,2013-04-02 03:02:00,
2013-04-01 22:12:00,33.0,17.0,30.30,NE,53,0.0,4.0,52,0.00,,,0.00,,2013-04-02 03:12:00,
2013-04-01 22:22:00,33.0,18.0,30.30,ESE,108,1.0,4.0,53,0.00,,,0.00,,2013-04-02 03:22:00,
2013-04-01 22:33:00,32.0,17.0,30.31,ESE,121,1.0,2.0,54,0.00,,,0.00,,2013-04-02 03:33:00,
2013-04-01 22:43:00,32.0,17.0,30.31,ESE,121,1.0,2.0,54,0.00,,,0.00,,2013-04-02 03:43:00,
2013-04-01 22:53:00,32.0,18.0,30.31,SE,126,1.0,2.0,55,0.00,,,0.00,,2013-04-02 03:53:00,
2013-04-01 23:03:00,32.0,18.0,30.31,East,101,1.0,2.0,55,0.00,,,0.00,,2013-04-02 04:03:00,
2013-04-01 23:13:00,32.0,18.0,30.31,East,101,1.0,2.0,55,0.00,,,0.00,,2013-04-02 04:13:00,
2013-04-01 23:22:00,31.0,17.0,30.31,East,101,0.0,1.0,56,0.00,,,0.00,,2013-04-02 04:22:00,
2013-04-01 23:32:00,31.0,18.0,30.31,East,101,0.0,0.0,57,0.00,,,0.00,,2013-04-02 04:32:00,
2013-04-01 23:43:00,31.0,18.0,30.31,East,101,0.0,0.0,57,0.00,,,0.00,,2013-04-02 04:43:00,
2013-04-01 23:53:00,28.0,17.0,30.31,East,101,0.0,0.0,64,0.00,,,0.00,,2013-04-02 04:53:00,